Date String (YYYY-MM-DD hh:mm:ss) UTC,Instrument flags,absolute air pressure of the measurement (hPa),sample flow rate (lpm),inlet stack bypass flow (lpm),air temperature of the measurement (°C),ambient temperature measured by the external sensor (°C),aerosol sample conditioner tube jacket temperature (°C),OPC LED temperature (°C),internal box temperature (°C),relative humidity of the measurement (%),span deviation,mass concentration of particles derived from Lorenz-Mie calculation of OPC scattering (μg/m³),mass concentration of particles derived from Lorenz-Mie calculation of OPC scattering (μg/m³),mass concentration of particles derived from Lorenz-Mie calculation of OPC scattering (μg/m³)
DateTimeUTC,F1_M11,P_M11,Q1_M11,Q2_M11,T1_M11,T2_M11,T3_M11,T4_M11,T5_M11,U1_M11,ZSPAN_M11,X0_M11,X2_M11,X1_M11
2023-09-25 15:00:00,SystemResetWarning,0837.0,5.00,000.00,028.9,027.7,000.0,037.1,030.6,13.5,0000.0,0007.73,0003.55,0003.12
2023-09-25 15:01:00,SystemResetWarning,0837.0,5.00,000.00,028.9,027.7,000.0,037.1,030.6,13.5,0000.0,0008.10,0003.56,0003.13
2023-09-25 15:02:00,SystemResetWarning,0837.0,5.01,000.00,028.9,027.7,000.0,037.1,030.6,13.7,0000.0,0008.19,0003.57,0003.13
2023-09-25 15:03:00,SystemResetWarning,0837.0,5.00,000.00,028.9,027.7,000.0,037.1,030.6,13.9,0000.0,0007.47,0003.54,0003.13
2023-09-25 15:04:00,SystemResetWarning,0837.0,5.00,000.00,029.0,027.7,000.0,037.1,030.6,13.8,0000.0,0006.84,0003.52,0003.13
2023-09-25 15:05:00,SystemResetWarning,0837.0,4.99,000.00,029.0,027.7,000.0,037.2,030.6,13.8,0000.0,0007.47,0003.55,0003.14
2023-09-25 15:06:00,SystemResetWarning,0836.9,5.00,000.00,029.0,027.8,000.0,037.2,030.7,13.6,0000.0,0007.34,0003.55,0003.14
2023-09-25 15:07:00,SystemResetWarning,0837.0,5.00,000.00,029.0,027.8,000.0,037.2,030.7,13.5,0000.0,0007.33,0003.56,0003.14
2023-09-25 15:08:00,SystemResetWarning,0837.0,5.02,000.00,029.0,027.8,000.0,037.2,030.7,13.6,0000.0,0007.44,0003.61,0003.15
2023-09-25 15:09:00,SystemResetWarning,0836.9,5.00,000.00,029.0,027.8,000.0,037.2,030.7,13.8,0000.0,0007.46,0003.60,0003.14
2023-09-25 15:10:00,SystemResetWarning,0837.0,5.00,000.00,029.1,027.9,000.0,037.3,030.7,13.6,0000.0,0007.62,0003.64,0003.15
2023-09-25 15:11:00,SystemResetWarning,0837.0,4.99,000.00,029.1,027.9,000.0,037.3,030.7,13.8,0000.0,0007.72,0003.65,0003.13
2023-09-25 15:12:00,SystemResetWarning,0836.9,5.00,000.00,029.1,027.9,000.0,037.3,030.7,14.3,0000.0,0008.20,0003.66,0003.12
2023-09-25 15:13:00,SystemResetWarning,0836.9,5.00,000.00,029.1,027.9,000.0,037.3,030.8,14.3,0000.0,0008.66,0003.65,0003.12
2023-09-25 15:14:00,SystemResetWarning,0837.0,5.00,000.00,029.1,027.9,000.0,037.3,030.8,14.3,0000.0,0008.71,0003.68,0003.12
2023-09-25 15:15:00,SystemResetWarning,0836.9,5.00,000.00,029.2,028.0,000.0,037.3,030.8,14.4,0000.0,0008.74,0003.70,0003.13
2023-09-25 15:16:00,SystemResetWarning,0836.9,5.00,000.00,029.2,028.0,000.0,037.4,030.8,14.8,0000.0,0008.40,0003.66,0003.12
2023-09-25 15:17:00,SystemResetWarning,0836.9,5.00,000.00,029.2,027.6,000.0,037.4,030.8,14.4,0000.0,0008.44,0003.64,0003.12
2023-09-25 15:18:00,SystemResetWarning,0836.9,4.99,000.00,029.1,026.1,000.0,037.3,030.5,14.7,0000.0,0008.50,0003.64,0003.12
2023-09-25 15:19:00,SystemResetWarning,0837.0,5.01,000.00,029.0,025.6,000.0,037.2,030.4,14.6,0000.0,0008.40,0003.61,0003.12
2023-09-25 15:20:00,SystemResetWarning,0836.9,5.01,000.00,029.0,025.7,000.0,037.3,030.2,14.5,0000.0,0008.57,0003.61,0003.13
2023-09-25 15:21:00,SystemResetWarning,0837.0,4.99,000.00,028.9,026.0,000.0,037.3,030.2,14.4,0000.0,0008.91,0003.63,0003.14
2023-09-25 15:22:00,SystemResetWarning,0836.9,5.00,000.00,028.8,026.3,000.0,037.2,030.2,14.4,0000.0,0008.99,0003.64,0003.15
2023-09-25 15:23:00,SystemResetWarning,0836.9,5.00,000.00,028.8,026.5,000.0,037.2,030.3,14.5,0000.0,0008.78,0003.65,0003.16
2023-09-25 15:24:00,SystemResetWarning,0836.9,5.00,000.00,028.8,026.7,000.0,037.2,030.3,14.4,0000.0,0008.21,0003.66,0003.17
2023-09-25 15:25:00,SystemResetWarning,0836.9,5.01,000.00,028.8,026.9,000.0,037.2,030.3,14.6,0000.0,0008.14,0003.65,0003.16
2023-09-25 15:26:00,SystemResetWarning,0837.0,5.00,000.00,028.8,027.1,000.0,037.2,030.4,14.8,0000.0,0008.66,0003.68,0003.16
2023-09-25 15:27:00,SystemResetWarning,0837.0,5.00,000.00,028.8,027.2,000.0,037.2,030.4,14.6,0000.0,0008.98,0003.72,0003.17
2023-09-25 15:28:00,SystemResetWarning,0837.0,5.00,000.00,028.9,027.3,000.0,037.2,030.4,14.5,0000.0,0008.96,0003.74,0003.18
2023-09-25 15:29:00,SystemResetWarning,0837.0,5.00,000.00,028.9,027.4,000.0,037.2,030.5,14.5,0000.0,0008.89,0003.74,0003.17
2023-09-25 15:30:00,SystemResetWarning,0837.0,5.00,000.00,028.9,027.5,000.0,037.2,030.5,14.3,0000.0,0008.88,0003.75,0003.18
2023-09-25 15:31:00,SystemResetWarning,0836.9,5.00,000.00,028.9,027.5,000.0,037.2,030.5,14.5,0000.0,0008.65,0003.74,0003.17
2023-09-25 15:32:00,SystemResetWarning,0837.0,5.00,000.00,028.9,027.6,000.0,037.2,030.6,14.5,0000.0,0008.32,0003.74,0003.17
2023-09-25 15:33:00,SystemResetWarning,0836.9,5.00,000.00,028.9,027.6,000.0,037.2,030.6,14.4,0000.0,0008.18,0003.72,0003.17
2023-09-25 15:34:00,SystemResetWarning,0837.0,5.00,000.00,029.0,027.7,000.0,037.2,030.6,14.0,0000.0,0007.76,0003.70,0003.18
2023-09-25 15:35:00,SystemResetWarning,0837.0,5.00,000.00,029.0,027.7,000.0,037.2,030.6,13.9,0000.0,0008.02,0003.71,0003.18
2023-09-25 15:36:00,SystemResetWarning,0836.9,5.00,000.00,029.0,027.3,000.0,037.2,030.6,14.0,0000.0,0008.38,0003.71,0003.18
2023-09-25 15:37:00,SystemResetWarning,0837.0,5.00,000.00,028.9,025.7,000.0,037.2,030.1,14.1,0000.0,0008.67,0003.70,0003.19
2023-09-25 15:38:00,SystemResetWarning,0837.0,5.00,000.00,028.8,024.9,000.0,037.1,030.0,14.1,0000.0,0007.91,0003.67,0003.19
2023-09-25 15:39:00,SystemResetWarning,0837.0,5.01,000.00,028.7,025.1,000.0,037.0,029.9,14.1,0000.0,0008.68,0003.69,0003.19
2023-09-25 15:40:00,SystemResetWarning,0837.0,5.01,000.00,028.6,025.4,000.0,037.0,029.8,14.3,0000.0,0008.81,0003.70,0003.19
2023-09-25 15:41:00,SystemResetWarning,0837.0,4.98,000.00,028.6,025.7,000.0,037.0,029.9,14.1,0000.0,0009.04,0003.69,0003.19
2023-09-25 15:42:00,SystemResetWarning,0837.0,4.99,000.00,028.6,026.0,000.0,037.0,030.0,14.0,0000.0,0009.41,0003.71,0003.19
2023-09-25 15:43:00,SystemResetWarning,0837.0,5.01,000.00,028.6,026.3,000.0,037.0,030.0,14.1,0000.0,0010.86,0003.74,0003.20
2023-09-25 15:44:00,SystemResetWarning,0837.0,5.01,000.00,028.6,026.5,000.0,037.0,030.0,14.1,0000.0,0011.51,0003.77,0003.19
2023-09-25 15:45:00,SystemResetWarning,0837.0,4.99,000.00,028.6,026.7,000.0,037.0,030.1,14.0,0000.0,0011.51,0003.77,0003.18
2023-09-25 15:46:00,SystemResetWarning,0837.0,5.00,000.00,028.6,026.9,000.0,037.0,030.1,14.0,0000.0,0011.90,0003.76,0003.19
2023-09-25 15:47:00,SystemResetWarning,0837.0,5.00,000.00,028.6,027.1,000.0,037.0,030.2,14.1,0000.0,0011.69,0003.76,0003.19
2023-09-25 15:48:00,SystemResetWarning,0837.0,4.99,000.00,028.6,027.2,000.0,037.0,030.2,14.1,0000.0,0011.54,0003.78,0003.19
2023-09-25 15:49:00,SystemResetWarning,0836.9,5.00,000.00,028.7,027.3,000.0,037.0,030.3,14.0,0000.0,0013.00,0003.81,0003.20
2023-09-25 15:50:00,SystemResetWarning,0836.9,5.00,000.00,028.7,027.4,000.0,037.0,030.3,13.9,0000.0,0013.11,0003.81,0003.22
2023-09-25 15:51:00,SystemResetWarning,0837.0,5.01,000.00,028.7,027.5,000.0,037.0,030.4,13.6,0000.0,0012.98,0003.78,0003.22
2023-09-25 15:52:00,SystemResetWarning,0836.9,5.01,000.00,028.7,027.5,000.0,037.0,030.4,13.8,0000.0,0012.93,0003.82,0003.24
2023-09-25 15:53:00,SystemResetWarning,0836.9,5.00,000.00,028.8,027.6,000.0,037.0,030.4,13.8,0000.0,0012.96,0003.86,0003.23
2023-09-25 15:54:00,SystemResetWarning,0836.9,4.99,000.00,028.8,027.3,000.0,037.0,030.4,13.9,0000.0,0012.69,0003.83,0003.23
2023-09-25 15:55:00,SystemResetWarning,0836.9,4.99,000.00,028.7,025.7,000.0,037.0,030.0,14.0,0000.0,0012.18,0003.80,0003.24
2023-09-25 15:56:00,SystemResetWarning,0837.0,5.00,000.00,028.6,024.7,000.0,036.9,029.8,14.0,0000.0,0012.93,0003.81,0003.26
2023-09-25 15:57:00,SystemResetWarning,0837.0,5.01,000.00,028.5,024.9,000.0,036.9,029.8,14.0,0000.0,0013.06,0003.84,0003.26
2023-09-25 15:58:00,SystemResetWarning,0837.0,4.99,000.00,028.4,025.1,000.0,036.9,029.7,14.4,0000.0,0013.08,0003.83,0003.25
2023-09-25 15:59:00,SystemResetWarning,0837.0,5.00,000.00,028.4,025.5,000.0,036.8,029.7,14.5,0000.0,0012.95,0003.83,0003.25
